8P/Tuttle (2021)

Japanese version
Home page
Updated on April 4, 2021

---------------------------------------------------------------------

* Profile

* Pictures

* Orbital Elements

Epoch 2021 Aug. 14.0 TT = JDT 2459440.5
T 2021 Aug. 27.74081 TT                                 Rudenko
q   1.0260078            (2000.0)            P               Q
n   0.07227914     Peri.  207.48926     -0.26849337     -0.50829757
a   5.7076947      Node   270.20389     +0.96326309     -0.13641792
e   0.8202413      Incl.   54.91123     +0.00596041     -0.85030802
P  13.6
From 1586 observations 2007 Apr. 22-2021 Jan. 14, mean residual 0".9.
     Nongravitational parameters A1 = +0.06, A2 = +0.0138.

* Finding Charts

* Magnitudes Graph

        H = 13.5  G = 0.15                       [    ,-205]  (             - 2021 Feb.  3)
        m1 = 7.0 + 5 log d + 20.0 log r(t - 25)  [-205,    ]  (2021 Feb.  3 -             )

---------------------------------------------------------------------

The orbital elements are published on M.P.E.C. 2021-B143.
The charts are made with StellaNavigator Ver.10 (AstroArts).
The magnitudes graphs are made with Comet for Windows.

---------------------------------------------------------------------

Copyright(C) Seiichi Yoshida (comet@aerith.net). All rights reserved.